Regional Weather Roundup
Issued by NWS

Home | Current Version | Previous Version | Graphics & Text | Print | Product List | Glossary On
Versions: 1 2 3 4 5 6 7 8 9 10 11 12 13 14 15 16 17 18 19 20 21 22 23 24 25 26 27 28 29 30 31 32 33 34 35 36 37 38 39 40 41 42 43 44 45 46 47 48 49 50
000
ASUS43 KLMK 231710
RWRKY
KENTUCKY REGIONAL WEATHER ROUNDUP
NATIONAL WEATHER SERVICE LOUISVILLE KY
100 PM EDT SAT JUL 23 2016

NOTE "FAIR" INDICATES FEW OR NO CLOUDS BELOW 12,000 FEET
WITH NO SIGNIFICANT WEATHER AND/OR OBSTRUCTIONS TO VISIBILITY.

KYZ001>023-026-027-061>063-070>075-231800-
WESTERN AND SOUTH CENTRAL KENTUCKY

CITY           SKY/WX    TMP DP  RH WIND       PRES   REMARKS
PADUCAH        SUNNY     88  74  63 VRB3      29.98F HX  96
HENDERSON      MOSUNNY   88  77  70 SE3       29.98S HX 100
OWENSBORO      MOSUNNY   89  78  70 SE8       30.00F HX 102
HOPKINSVILLE   MOSUNNY   87  75  67 E2        29.99F HX  95
BOWLING GREEN  SUNNY     88  75  65 SE5       30.01S HX  97
GLASGOW        MOSUNNY   89  74  62 CALM      30.02S HX  97
$$

KYZ024-025-028>034-038-045-046-053-231800-
NORTH CENTRAL KENTUCKY

CITY           SKY/WX    TMP DP  RH WIND       PRES   REMARKS
LOUISVILLE/SDF MOSUNNY   88  71  57 CALM      30.00F HX  94
LOUISVILLE/LOU SUNNY     89  71  55 CALM      30.01F HX  95
FORT KNOX      MOSUNNY   86  74  67 S6        30.00F HX  94
$$

KYZ035>037-039>044-047>052-055>060-089>105-231800-
NORTHEAST KENTUCKY

CITY           SKY/WX    TMP DP  RH WIND       PRES   REMARKS
LEXINGTON      PTSUNNY   89  71  55 SW5       30.04F HX  95
COVINGTON      MOSUNNY   88  72  58 CALM      30.02F HX  94
FRANKFORT      PTSUNNY   87  70  56 VRB5      30.01F HX  92
$$

KYZ054-064>069-076>088-106>120-231800-
SOUTHEAST KENTUCKY

CITY           SKY/WX    TMP DP  RH WIND       PRES   REMARKS
JACKSON        SUNNY     86  70  58 E3        30.06F HX  90
LONDON         MOSUNNY   89  70  53 E3        30.05S HX  94
SOMERSET       SUNNY     86  70  58 CALM      30.05F HX  90
MIDDLESBORO    PTSUNNY   89  73  58 CALM      30.05F HX  96
MONTICELLO     PTSUNNY  N/A N/A N/A VRB7      30.05F
$$




USA.gov is the U.S. government's official web portal to all federal, state and local government web resources and services.